Location: Newark
(39.8867°N, 94.3600°W)
Time: 20:10:00
(UTC+00:00)

N. Korean satellite - Pass Details

Date: 02 February 2020
Orbit: 456 x 505 km, 97.2° (Epoch: 23 February)

Event Time Altitude Azimuth Distance (km) Brightness Sun altitude
Rises 11:43:52 0° 18° (NNE) 2,572 10.4 -19.7°
Reaches altitude 10° 11:46:00 10° 25° (NNE) 1,694 9.5 -19.3°
Maximum altitude 11:49:31 45° 99° (E) 684 7.7 -18.6°
Drops below altitude 10° 11:53:03 10° 173° (S) 1,701 9.5 -17.9°
Sets 11:55:11 0° 180° (S) 2,584 10.4 -17.5°
